Latest Coastal Weather Observations for Mackay

IDQ60701

Issued at 6:51 pm EST Wednesday 19 June 2019 (issued every 10 minutes, with the page automatically refreshed every 10 minutes)

About coastal observations | Map of coastal stations | Coastal observations for QLD | Marine services | Other Formats
Station Details ID: 033119 Name: MACKAY M.O Lat: -21.12 Lon: 149.22 Height: 30.26 m
Data from the previous 72 hours. | See also: Recent months at Mackay
Date/Time
EST
Wind Sea
Height
m
Swell Vis
km
Cloud Weather Temp
°C
Press
hPa
Rain since
9am
mm
Dir  Spd
kts
Gust
kts
Height
m
Period
s
Dir
19/06:30pm ESE 6 8 - - - - - - - 18.9 1018.3 0.0
19/06:00pm ESE 7 11 - - - - - - - 18.8 1017.9 0.0
19/05:30pm ESE 6 11 - - - - - - - 18.9 1017.6 0.0
19/05:00pm ESE 7 10 - - - - - - - 19.3 1017.2 0.0
19/04:30pm SE 8 12 - - - - - - - 19.6 1017.1 0.0
19/04:00pm SE 8 11 - - - - - - - 20.0 1016.8 0.0
19/03:30pm SE 7 13 - - - - - - - 20.4 1016.7 0.0
19/03:00pm SE 8 13 - - - - - - - 20.8 1016.8 0.0
19/02:30pm SE 8 13 - - - - - - - 20.7 1016.8 0.0
19/02:00pm SSE 9 16 - - - - - - - 21.2 1016.9 0.0
19/01:30pm SSE 10 17 - - - - - - - 20.8 1017.2 0.0
19/01:00pm SSE 11 18 - - - - - - - 21.1 1017.7 0.0
19/12:30pm SSE 12 18 - - - - - - - 20.9 1018.1 0.0
19/12:00pm SSE 11 17 - - - - - - - 20.6 1018.7 0.0
19/11:30am S 11 17 - - - - - - - 20.3 1019.2 0.0
19/11:00am S 10 16 - - - - - - - 19.9 1019.6 0.0
19/10:30am S 9 15 - - - - - - - 19.4 1019.9 0.0
19/10:00am SSW 8 12 - - - - - - - 18.4 1019.9 0.0
19/09:30am SSW 6 11 - - - - - - - 17.3 1020.0 0.0
19/09:00am SW 6 9 - - - - - - - 15.8 1019.9 0.0
19/08:30am SW 7 9 - - - - - - - 14.1 1019.8 0.0
19/08:00am SW 7 9 - - - - - - - 12.3 1019.4 0.0
19/07:30am WSW 7 10 - - - - - - - 10.8 1019.1 0.0
19/07:00am WSW 7 9 - - - - - - - 10.1 1018.6 0.0
19/06:30am WSW 7 8 - - - - - - - 10.2 1018.2 0.0
19/06:00am WSW 7 9 - - - - - - - 10.4 1017.8 0.0
19/05:30am WSW 7 9 - - - - - - - 10.5 1017.6 0.0
19/05:00am WSW 8 10 - - - - - - - 10.8 1017.4 0.0
19/04:30am WSW 8 11 - - - - - - - 11.0 1017.1 0.0
19/04:00am WSW 7 8 - - - - - - - 11.0 1017.2 0.0
19/03:30am WSW 7 8 - - - - - - - 11.4 1017.3 0.0
19/03:00am WSW 7 8 - - - - - - - 11.8 1017.4 0.0
19/02:30am WSW 7 9 - - - - - - - 12.2 1017.6 0.0
19/02:00am WSW 7 10 - - - - - - - 12.7 1017.8 0.0
19/01:30am WSW 7 9 - - - - - - - 12.9 1018.0 0.0
19/01:00am WSW 7 9 - - - - - - - 13.6 1018.1 0.0
19/12:30am W 7 10 - - - - - - - 13.9 1018.4 0.0
19/12:00am W 7 10 - - - - - - - 14.0 1018.6 0.0
 
Date/Time
EST
Wind Sea
Height
m
Swell Vis
km
Cloud Weather Temp
°C
Press
hPa
Rain since
9am
mm
Dir  Spd
kts
Gust
kts
Height
m
Period
s
Dir
18/11:30pm WSW 6 8 - - - - - - - 13.9 1019.0 0.0
18/11:00pm WSW 7 8 - - - - - - - 13.9 1018.9 0.0
18/10:30pm WSW 7 9 - - - - - - - 13.9 1018.8 0.0
18/10:00pm WSW 7 8 - - - - - - - 14.3 1018.8 0.0
18/09:30pm WSW 7 8 - - - - - - - 14.8 1018.7 0.0
18/09:00pm WSW 6 7 - - - - - - - 15.2 1018.4 0.0
18/08:30pm SW 6 7 - - - - - - - 16.0 1018.1 0.0
18/08:00pm SW 6 7 - - - - - - - 16.4 1018.0 0.0
18/07:30pm S 5 6 - - - - - - - 16.9 1017.8 0.0
18/07:00pm SE 4 6 - - - - - - - 18.4 1017.3 0.0
18/06:30pm SE 5 6 - - - - - - - 18.0 1017.0 0.0
18/06:00pm SE 4 6 - - - - - - - 18.3 1016.7 0.0
18/05:30pm SE 5 7 - - - - - - - 18.7 1016.4 0.0
18/05:00pm ESE 5 8 - - - - - - - 19.5 1016.2 0.0
18/04:30pm ESE 5 7 - - - - - - - 20.0 1015.9 0.0
18/04:00pm E 6 9 - - - - - - - 20.1 1015.7 0.0
18/03:30pm E 6 9 - - - - - - - 20.2 1015.5 0.0
18/03:00pm ESE 6 11 - - - - - - - 20.3 1015.7 0.0
18/02:30pm ESE 7 11 - - - - - - - 20.6 1015.9 0.0
18/02:00pm SSE 7 10 - - - - - - - 20.8 1016.2 0.0
18/01:30pm SSE 8 13 - - - - - - - 20.5 1016.6 0.0
18/01:00pm SSE 9 14 - - - - - - - 20.9 1017.2 0.0
18/12:30pm SSE 9 14 - - - - - - - 20.5 1017.8 0.0
18/12:00pm SSE 9 14 - - - - - - - 20.5 1018.2 0.0
18/11:30am SSE 10 16 - - - - - - - 20.2 1018.7 0.0
18/11:00am S 11 17 - - - - - - - 19.8 1019.1 0.0
18/10:30am S 10 16 - - - - - - - 19.3 1019.3 0.0
18/10:00am S 10 16 - - - - - - - 19.2 1019.2 0.0
18/09:30am S 11 18 - - - - - - - 18.2 1019.2 0.0
18/09:00am S 8 16 - - - - - - - 17.4 1019.2 0.2
18/08:30am SSW 7 9 - - - - - - - 15.9 1019.1 0.2
18/08:00am SSW 7 9 - - - - - - - 15.0 1018.7 0.2
18/07:30am SSW 8 9 - - - - - - - 13.5 1018.3 0.2
18/07:00am SSW 8 9 - - - - - - - 13.0 1018.0 0.2
18/06:30am SSW 7 7 - - - - - - - 13.1 1017.6 0.2
18/06:00am SSW 7 8 - - - - - - - 13.1 1017.1 0.2
18/05:30am SSW 7 8 - - - - - - - 13.2 1016.9 0.2
18/05:00am SW 7 8 - - - - - - - 13.3 1017.0 0.2
18/04:30am SW 8 10 - - - - - - - 14.1 1017.0 0.2
18/04:00am SW 7 8 - - - - - - - 14.3 1016.8 0.2
18/03:30am SSW 6 8 - - - - - - - 15.0 1017.0 0.2
18/03:00am SW 6 8 - - - - - - - 14.9 1017.0 0.2
18/02:30am SW 7 8 - - - - - - - 15.1 1017.2 0.2
18/02:00am SSW 8 11 - - - - - - - 14.7 1017.3 0.2
18/01:30am SW 5 7 - - - - - - - 15.7 1017.6 0.2
18/01:00am SW 7 8 - - - - - - - 16.0 1017.9 0.2
18/12:30am SW 6 7 - - - - - - - 16.2 1017.8 0.2
18/12:00am WSW 6 7 - - - - - - - 16.3 1017.7 0.2
 
Date/Time
EST
Wind Sea
Height
m
Swell Vis
km
Cloud Weather Temp
°C
Press
hPa
Rain since
9am
mm
Dir  Spd
kts
Gust
kts
Height
m
Period
s
Dir
17/11:30pm SW 5 6 - - - - - - - 16.3 1017.7 0.2
17/11:00pm WSW 6 7 - - - - - - - 16.5 1018.0 0.2
17/10:30pm SW 6 7 - - - - - - - 16.7 1018.0 0.2
17/10:00pm SW 4 5 - - - - - - - 17.3 1018.2 0.2
17/09:30pm SW 6 7 - - - - - - - 17.7 1018.0 0.2
17/09:00pm SW 6 7 - - - - - - - 17.8 1017.9 0.2
17/08:30pm SSW 6 6 - - - - - - - 18.7 1017.7 0.2
17/08:00pm S 6 7 - - - - - - - 18.6 1017.5 0.2
17/07:30pm SSE 5 7 - - - - - - - 18.8 1017.1 0.2
17/07:00pm SE 5 8 - - - - - - - 19.7 1016.8 0.2
17/06:30pm SSE 5 8 - - - - - - - 19.4 1016.4 0.2
17/06:00pm SSE 5 8 - - - - - - - 19.7 1016.2 0.2
17/05:30pm SSE 5 8 - - - - - - - 20.1 1015.9 0.2
17/05:00pm SSE 6 10 - - - - - - - 20.6 1015.7 0.2
17/04:30pm SE 6 9 - - - - - - - 21.1 1015.4 0.2
17/04:00pm SE 5 8 - - - - - - - 21.7 1015.2 0.2
17/03:30pm SE 5 9 - - - - - - - 21.8 1015.0 0.2
17/03:00pm ESE 7 11 - - - - - - - 22.0 1015.0 0.2
17/02:30pm ESE 7 10 - - - - - - - 22.0 1015.2 0.2
17/02:00pm SE 7 11 - - - - - - - 22.2 1015.3 0.2
17/01:30pm ESE 7 9 - - - - - - - 22.1 1015.8 0.2
17/01:00pm E 6 9 - - - - - - - 21.8 1016.1 0.2
17/12:30pm ENE 7 10 - - - - - - - 22.1 1016.5 0.2
17/12:00pm ESE 5 7 - - - - - - - 22.4 1017.0 0.2
17/11:30am ENE 3 6 - - - - - - - 23.1 1017.3 0.2
17/11:00am NE 4 6 - - - - - - - 23.4 1017.6 0.2
17/10:53am ENE 3 6 - - - - - Partly cloudy - 22.8 1017.7 0.2
17/10:30am N 3 6 - - - - - Partly cloudy - 22.5 1017.9 0.2
17/10:00am N 5 7 - - - - - Partly cloudy - 20.8 1018.1 0.0
17/09:30am N 5 9 - - - - - Partly cloudy - 20.5 1018.2 0.0
17/09:28am N 5 9 - - - - - Partly cloudy - 20.4 1018.1 0.0
17/09:00am NW 1 4 - - - - - - - 19.8 1018.2 0.2
17/08:30am NW 3 6 - - - - - - - 18.5 1018.1 0.2
17/08:00am W 4 6 - - - - - Partly cloudy - 17.6 1017.7 0.2
17/07:30am WSW 5 7 - - - - - - - 16.9 1017.4 0.2
17/07:00am WSW 6 8 - - - - - - - 16.8 1017.0 0.2
17/06:30am WSW 6 8 - - - - - - - 16.7 1016.7 0.2
17/06:00am WSW 6 8 - - - - - - - 16.9 1016.5 0.2
17/05:30am WSW 6 7 - - - - - Partly cloudy - 17.2 1016.2 0.2
17/05:24am WSW 6 8 - - - - - Partly cloudy - 17.3 1016.1 0.2
17/05:00am WSW 6 8 - - - - - Partly cloudy - 17.3 1016.1 0.2
17/04:30am WSW 5 7 - - - - - Cloudy - 17.3 1015.9 0.2
17/04:00am WSW 4 6 - - - - - Cloudy - 17.4 1015.8 0.2
17/03:30am WSW 5 6 - - - - - Cloudy - 17.8 1015.7 0.2
17/03:00am WSW 5 6 - - - - - Cloudy Recent precip. 18.1 1015.8 0.2
17/02:30am WSW 6 8 - - - - - Cloudy - 18.1 1015.9 0.2
17/02:00am WSW 6 8 - - - - - Cloudy - 18.0 1016.1 0.0
17/01:30am WSW 5 7 - - - - - Cloudy - 18.1 1016.5 0.0
17/01:00am WSW 5 6 - - - - - Cloudy - 18.1 1016.8 0.0
17/12:46am WSW 6 7 - - - - - Partly cloudy - 18.4 1016.8 0.0
17/12:30am WSW 6 7 - - - - - - - 18.6 1017.0 0.0
17/12:00am SW 5 7 - - - - - - - 18.6 1017.2 0.0
 
Date/Time
EST
Wind Sea
Height
m
Swell Vis
km
Cloud Weather Temp
°C
Press
hPa
Rain since
9am
mm
Dir  Spd
kts
Gust
kts
Height
m
Period
s
Dir
16/11:30pm WSW 5 6 - - - - - - - 18.7 1017.4 0.0
16/11:00pm WSW 5 6 - - - - - - - 18.7 1017.6 0.0
16/10:30pm WSW 5 6 - - - - - - - 18.9 1017.8 0.0
16/10:25pm WSW 5 6 - - - - - Partly cloudy - 18.8 1017.8 0.0
16/10:00pm SW 4 6 - - - - - Cloudy - 19.2 1017.9 0.0
16/09:30pm WSW 5 6 - - - - - Partly cloudy - 19.5 1017.9 0.0
16/09:19pm WSW 4 5 - - - - - Partly cloudy - 19.5 1017.9 0.0
16/09:00pm CALM 0 3 - - - - - - - 20.0 1017.8 0.0
16/08:30pm SSW 3 4 - - - - - - - 19.7 1017.8 0.0
16/08:00pm S 4 6 - - - - - Partly cloudy - 20.0 1017.9 0.0
16/07:30pm S 5 6 - - - - - Partly cloudy - 20.2 1017.6 0.0
16/07:00pm SSE 4 5 - - - - - Partly cloudy - 20.3 1017.2 0.0

Other formats

Comma delimited format used in spreadsheet applications
http://www.bom.gov.au/fwo/IDQ60701/IDQ60701.94367.axf

JavaScript Object Notation format (JSON) in row-major order
http://www.bom.gov.au/fwo/IDQ60701/IDQ60701.94367.json

Data quality

Most of these data are generated automatically and are frequently updated. Quality checks on data are not normally performed. It is possible for incorrect values to appear. Refer to information at About Latest Weather Observations and please check the disclaimer before using these data.